Sheriff Indiana Allen County Courthouse Allen County Sheriff's Department - Ken Fries, Sheriff | Allen County, Indiana
Sheriff Ken Fries

Activity Logs

Activity Log for April 18, 2013

Back to List of Log Dates


Incident Time Nature Address
13A016744 00:56:35 1 Meet 5xx Waverly Dr & Southriver Rd
13A016795 10:43:36 1 Meet 15xx Clinton St S
13A016825 14:35:48 1 Meet 41xx Aspen Ct
13A016846 17:25:22 1 Meet 56xx Cook Rd W
13A016768 08:23:20 101 Open Door 112xx Willow Creek Dr
13A016852 18:32:49 102,tx Threats 105xx Winchester Rd
13A016861 19:47:51 102,tx Threats 16xx Bear Claw Ln
13A016751 05:29:23 108 Followup 30xx Hillegas Rd
13A016789 10:27:32 108 Followup 67xx Metro Park Dr
13A016812 12:09:02 108 Followup 259xx Castleman Rd
13A016753 06:06:43 11 Pick Up Pris 1 Oc
13A016765 08:07:05 11 Pick Up Pris 27xx Maumee Ave
13A016767 08:15:41 11 Pick Up Pris 1 Oc
13A016771 08:50:26 11 Pick Up Pris 22xx Randallia Dr
13A016821 13:07:04 11 Pick Up Pris 1 Oc
13A016840 16:51:07 111d Dog 108xx Oak Fall Ct
13A016851 18:24:12 111d Dog 148xx Wayne St
13A016746 02:06:12 113 Shots Fired 103xx Clinton St N
13A016749 03:09:49 120 Grabill 135xx State St
13A016860 19:42:12 120 Grabill 135xx State St
13A016745 01:41:28 122 Huntertown 150xx Old Lima Rd
13A016764 07:38:25 123 Leo/cedarvi 150xx Sr 1
13A016743 00:47:08 124 Monroeville 2xx South St W
13A016761 07:31:22 129 153xx Old Lima Rd
13A016774 09:06:23 129 9xx Prospect Ave
13A016813 12:09:35 129 9xx Library Plaza
13A016815 12:18:20 129 172xx Woodburn Rd
13A016862 19:48:00 129 91xx Winchester Rd
13A016863 19:53:44 129 88xx Edwardsberg Pl
13A016759 07:11:49 14s Serving War 54xx Winchester Rd
13A016772 08:59:14 14s Serving War 8xx Putnam St
13A016775 09:08:29 14s Serving War 6xx Florence Ave
13A016776 09:14:10 14s Serving War 8xx Putnam St
13A016782 09:25:09 14s Serving War 29xx Stinson Dr
13A016781 09:31:50 14s Serving War 1xx Superior St E
13A016787 10:17:50 14s Serving War 66xx Stellhorn Rd
13A016794 10:41:33 14s Serving War 54xx Southpark Dr
13A016803 11:06:11 14s Serving War 8xx Harbor Walk Dr
13A016804 11:14:18 14s Serving War 8xx Putnam St
13A016830 15:01:02 14s Serving War 25xx Ellen Ave
13A016831 15:20:52 14s Serving War 1xx Superior St E
13A016832 15:36:31 14s Serving War 8xx Harbor Walk Dr
13A016850 18:07:47 14s Serving War 190xx Tonkel Rd
13A016855 18:40:08 14s Serving War 21xx Cheri Ct
13A016858 18:55:38 14s Serving War 25xx Sunnymede Dr
13A016869 20:30:59 14s Serving War 150xx Windwood Ct
13A016870 20:41:45 14s Serving War 28xx Warrior Way
13A016872 20:43:41 14s Serving War 67xx Ramblewood Dr
13A016876 21:09:17 14s Serving War 15xx Mayfield Rd
13A016883 21:59:31 14s Serving War 13xx Fayette Dr
13A016884 22:14:00 14s Serving War 40xx Avondale Dr
13A016750 03:38:07 15 Assist 54xx Old Maumee Rd
13A016817 12:46:15 15 Assist 9xx Library Plaza
13A016845 17:21:32 15 Assist 53xx Ardmore Ave
13A016762 07:32:40 17 Motor Check 248xx Slusher Rd
13A016784 09:35:38 17 Motor Check 88xx Bass Rd
13A016810 11:36:38 17 Motor Check 132xx Mcardle Rd
13A016811 11:58:20 17 Motor Check 154xx Doty Rd
13A016827 14:46:03 17 Motor Check 66xx Hursh Rd
13A016844 17:01:57 17 Motor Check 104xx Main St
13A016866 20:21:29 18 Work Traffic 83xx St Joe Rd & Mayhew Rd
13A016779 09:22:05 22i Juv Invest 104xx River Rapids Run
13A016823 13:38:41 22i Juv Invest 136xx Hamilton Rd W
13A016824 14:03:35 22i Juv Invest 110xx Rivendell Cv
13A016833 15:40:04 22i Juv Invest 78xx Huguenard Rd
13A016841 16:52:09 22i Juv Invest 107xx Us 27 S
13A016783 09:32:38 23 Vandalism 117xx Johnson Rd
13A016819 12:50:52 25 Pd Accident 19xx I 469 Nb
13A016888 22:45:40 25 Pd Accident 320xx I 69 Sb
13A016756 06:49:10 25,86 84xx Garman Rd & Hull Rd
13A016848 18:04:18 26 Pi Accident 17xx Carroll Rd
13A016880 21:54:19 26 Pi Accident 209xx Sr 37
13A016881 21:55:41 26 Pi Accident 205xx Sr 37 & Springfield Center R
13A016889 22:45:52 26 Pi Accident 320xx I 69 Sb
13A016890 22:45:54 26 Pi Accident 320xx I 69 Sb
13A016742 00:34:47 30 Traffic Stop 118xx Franke Rd & Monroeville Rd
13A016755 06:31:42 30 Traffic Stop 28xx I 469 Nb & Maplecrest Rd
13A016758 06:59:55 30 Traffic Stop 17xx Carroll Rd & Lima Rd
13A016773 09:05:31 30 Traffic Stop 16xx Clinton St S & Murray St
13A016792 10:33:03 30 Traffic Stop 26xx Ardmore Ave & Covington Rd
13A016798 10:59:37 30 Traffic Stop 41xx Smith Rd & Engle Rd
13A016805 11:15:23 30 Traffic Stop 41xx Smith Rd & Engle Rd
13A016807 11:26:41 30 Traffic Stop 41xx Smith Rd & Engle Rd
13A016814 12:12:42 30 Traffic Stop 299xx I 69 Nb
13A016822 13:23:07 30 Traffic Stop 19xx Broadway & Taylor St
13A016828 14:54:33 30 Traffic Stop 3xx Ferguson Rd E & Winchester Rd
13A016834 16:01:04 30 Traffic Stop 64xx Leesburg Rd & Flaugh Rd
13A016835 16:11:04 30 Traffic Stop 2xx Ferguson Rd W & Thiele Rd
13A016836 16:20:35 30 Traffic Stop 73xx Maplecrest Rd & Rothman Rd
13A016837 16:30:34 30 Traffic Stop 81xx Ardmore Ave & Airport Express
13A016838 16:31:47 30 Traffic Stop 16xx Wells St & Spring St
13A016839 16:36:10 30 Traffic Stop 118xx Bluffton Rd & Winters Rd
13A016842 16:57:04 30 Traffic Stop 11xx Scott Rd S & Illinois Rd
13A016878 21:27:12 30 Traffic Stop 31xx Clinton St N & Penn Ave
13A016760 07:26:26 32 Death Invest 104xx Walnut St
13A016748 02:38:06 33 Disabled Veh 14xx I 469 Nb
13A016757 06:49:40 33 Disabled Veh 73xx Adams Center Rd & Tillman Rd
13A016785 10:00:41 33 Disabled Veh 62xx Paulding Rd E & Adams Center
13A016769 08:25:28 34 Traff Hazard 10xx Hadley Rd N & Lincoln Pkwy
13A016770 08:41:58 34 Traff Hazard 71xx Bass Rd & Hadley Rd N
13A016801 11:03:41 34 Traff Hazard 317xx I 69 Nb
13A016806 11:21:53 34 Traff Hazard 155xx Sr 1 & Leo Dr N
13A016808 11:30:38 34 Traff Hazard 172xx Sr 1 & Devall Rd
13A016829 14:56:39 34 Traff Hazard 141xx Halter Rd
13A016854 18:37:32 34 Traff Hazard 122xx Lafayette Center Rd
13A016857 18:45:36 34 Traff Hazard 148xx Aboite Rd & Hamilton Rd W
13A016865 20:17:16 34 Traff Hazard 103xx Graber Rd & Notestine Rd
13A016867 20:25:59 34 Traff Hazard 106xx Cuba Rd & Sr 37
13A016871 20:41:46 34 Traff Hazard 55xx Hosler Rd & Tonkel Rd
13A016874 21:03:50 34 Traff Hazard 152xx Dunton Rd & Gump Rd W
13A016885 22:27:58 34 Traff Hazard 88xx Wheelock Rd & Flutter Rd
13A016894 23:17:26 34 Traff Hazard 128xx Sr 14 W & Westhamilton Rd S
13A016895 23:52:08 34 Traff Hazard 193xx Wappes Rd & Northcounty Line
13A016896 23:54:06 34 Traff Hazard 133xx Aboite Rd & Lafayette Center
13A016897 23:59:04 34 Traff Hazard 71xx Bass Rd & Hadley Rd N
13A016766 08:09:33 36 Occupied Veh 125xx Lima Rd & Fort Recovery Rd
13A016879 21:52:48 36 Occupied Veh 47xx Monroeville Rd & Trentman Rd
13A016886 22:30:58 36 Occupied Veh 88xx Marion Center Rd & Adams Cent
13A016891 22:46:24 38a Lost/articl 40xx Parnell Ave
13A016754 06:23:18 40a Audible 71xx Lincoln Pkwy
13A016809 11:33:26 40a Audible 85xx Backwater Dr
13A016816 12:40:53 40a Audible 192xx Hoffman Rd
13A016820 13:01:52 40a Audible 62xx Devils Hollow Rd
13A016868 20:26:45 40a Audible 104xx Sr 1
13A016875 21:06:27 40a Audible 27xx Ferguson Rd W
13A016778 09:19:58 48 Suspicious 8xx Pettit Ave E & Southpark Dr
13A016797 10:54:04 48 Suspicious 110xx Grabill Rd & Schwartz Rd
13A016873 20:52:15 48 Suspicious 74xx Anthony Blvd S & Tillman Rd E
13A016777 09:15:51 48,36 2xx Creekside Ct W
13A016818 12:48:57 48,36 79xx St Joe Rd
13A016843 16:57:08 48,36 15xx Chapman Rd
13A016882 21:56:42 48,36 21xx Dunkelberg Rd
13A016887 22:40:48 48,36 30xx Hillegas Rd
13A016763 07:35:03 50ip Burg I/p 118xx St Joe Rd
13A016793 10:39:06 51,attempted 96xx St Joe Rd
13A016859 19:39:48 80 Civil Invest 120xx Spencerville Rd
13A016788 10:18:17 80e Eviction 98xx Serpentine Cv
13A016796 10:51:02 80e Eviction 33xx Diplomat Dr
13A016786 10:16:00 80p Serving Po 17xx Andrew St
13A016799 11:01:33 80p Serving Po 6xx Wallen Hills Dr
13A016802 11:04:22 80p Serving Po 33xx Diplomat Dr
13A016747 02:29:37 911 Hang Up 52xx Southern Hills Dr
13A016780 09:27:51 911 Hang Up 122xx Lafayette Center Rd
13A016790 10:28:57 911 Hang Up 44xx Wall St E
13A016791 10:30:39 911 Hang Up 39xx Yoder Rd E
13A016826 14:45:10 911 Hang Up 122xx Minnich Rd
13A016849 18:05:21 911 Hang Up 97xx Roberts Rd
13A016853 18:35:07 911 Hang Up 111xx Parkview Plaza Dr
13A016877 21:18:22 911 Hang Up 114xx Green Holly Cv
13A016892 23:01:31 911 Hang Up 5xx Sumpter Dr
13A016893 23:14:10 911 Hang Up 15xx Waxwing Ct
13A016800 11:01:38 96 Battery 4xx Calhoun St S
13A016752 05:29:09 Ems 143xx Cedar Lake Dr W
13A016856 18:40:41 Test Law 148xx Wayne St
13A016864 20:17:15 Test Law 85xx Mayhew Rd